This is the latest recevied weather packets stored in our database for station/object SP5QWJ. If no packets are shown the sender has not sent any weather packets the latest 10 day(s).
| Time | Temp. | Humidity | Pressure | Rain* | Wind** | Luminosity | Snow |
|---|---|---|---|---|---|---|---|
| 1778018588 | 17.22° C | 83% | 1004.9 hPa | - | - | - | - |
| 1778017677 | 17.78° C | 81% | 1004.9 hPa | - | - | - | - |
| 1778016765 | 17.78° C | 78% | 1004.9 hPa | - | - | - | - |
| 1778015853 | 17.78° C | 74% | 1004.8 hPa | - | - | - | - |
| 1778014941 | 17.78° C | 70% | 1004.8 hPa | - | - | - | - |
| 1778014029 | 18.33° C | 66% | 1004.8 hPa | - | - | - | - |
| 1778013117 | 18.33° C | 58% | 1004.7 hPa | - | - | - | - |
| 1778012206 | 18.89° C | 48% | 1004.6 hPa | - | - | - | - |
| 1778011293 | 18.89° C | 44% | 1004.5 hPa | - | - | - | - |
| 1778010381 | 19.44° C | 43% | 1004.3 hPa | - | - | - | - |
| 1778009470 | 20° C | 42% | 1004 hPa | - | - | - | - |
| 1778008558 | 20° C | 40% | 1004 hPa | - | - | - | - |
| 1778007647 | 20.56° C | 39% | 1004 hPa | - | - | - | - |
| 1778006735 | 21.11° C | 37% | 1004.1 hPa | - | - | - | - |
| 1778005823 | 21.67° C | 37% | 1004.1 hPa | - | - | - | - |
| 1778004912 | 22.22° C | 35% | 1004 hPa | - | - | - | - |
| 1778004000 | 22.78° C | 34% | 1004.1 hPa | - | - | - | - |
| 1778002176 | 23.89° C | 32% | 1004.1 hPa | - | - | - | - |
| 1778001264 | 24.44° C | 31% | 1004.2 hPa | - | - | - | - |
| 1778000353 | 24.44° C | 31% | 1004.2 hPa | - | - | - | - |
| 1777999440 | 25° C | 30% | 1004.4 hPa | - | - | - | - |
| 1777998529 | 25.56° C | 29% | 1004.5 hPa | - | - | - | - |
| 1777997617 | 25.56° C | 29% | 1004.6 hPa | - | - | - | - |
| 1777996706 | 26.11° C | 29% | 1004.7 hPa | - | - | - | - |
| 1777995792 | 26.67° C | 28% | 1004.7 hPa | - | - | - | - |
* Rain since midnight (hover to see other rain measurements)
** Current wind speed in m/s (hover to see current wind gust speed)